STARLINK-32701 (62510 NORAD) Tracking and Keplerian Element Data

This shows tracking and keplerian element data for the satellite.

Feedback or suggestion? Click here.




ElementValue
Catalog62510
NameSTARLINK-32701
Epoch Orbit558
Epoch Day34.83335648
Epoch Year2025
RAAN25.5796
Inclination43.0007
Eccentricity0.0001456
Argument of Perigee264.9154
Mean Anonmoly126.8146
Mean Motion15.40715409
Decay Rate-0.00043191
L11 62510U 25003Z 25034.83335648 -.00043191 00000+0 -10320-2 0 9995
L22 62510 43.0007 25.5796 0001456 264.9154 126.8146 15.40715409 5583



Live tracking and technical data element details for STARLINK-32701 (NORAD 62510). STARLINK-32701 can be tracked NOW for your location showing map with azimuth and elevation plus other details from your city location.







IsCatalogInMostPopularTable: catalog: 62510, numindb: 23
Update: records affected: 1



GetName: 62510 STARLINK-32701

Hit Count: updated at: Sun, 18 May 2025 23:49:06 GMT